Regional Weather Roundup
Issued by NWS Goodland, KS

Home | Current Version | Previous Version | Graphics & Text | Print | Product List | Glossary On
Versions: 1 2 3 4 5 6 7 8 9 10 11 12 13 14 15 16 17 18 19 20 21 22 23 24 25 26 27 28 29 30 31 32 33 34 35 36 37 38 39 40 41 42 43 44 45 46 47 48 49 50
000
ASUS43 KGLD 241759
RWRGLD

GOODLAND FORECAST AREA HOURLY WEATHER ROUNDUP
NATIONAL WEATHER SERVICE GOODLAND KS
1100 AM MST MON NOV 24 2014

...OFFICIAL OBSERVATIONS...

CITY           SKY/WX    TMP DP  RH WIND       PRES   REMARKS
GOODLAND KS    PTSUNNY   46  14  27 NW23G30   29.92S
HILL CITY KS   SUNNY     47  15  27 NW26G35   29.90S
IMPERIAL NEB   MOSUNNY   44  21  40 NW26G32   29.89S
MCCOOK NEB     MOSUNNY   45  16  31 N20       29.88F
AKRON CO       CLOUDY    42  15  33 NW24G31   29.92R
BURLINGTON CO  MOSUNNY   44  14  29 NW25G35   29.92F
LIMON CO       MOSUNNY   39   9  29 NW24G32   29.94R
$$

...UNOFFICIAL OBSERVATIONS...

CITY           SKY/WX    TMP DP  RH WIND       PRES   REMARKS
COLBY KS       CLOUDY    46  23  39 NW24G31   29.91S
GOVE KS          N/A     48  32  54 MISG        N/A
NORTON KS      SUNNY     45  12  26 NW23G33   29.87S
SHARON SPRINGS   N/A     47  17  29 N21         N/A
TRENTON NEB      N/A     43  32  65 NW16        N/A
$$



USA.gov is the U.S. government's official web portal to all federal, state and local government web resources and services.